Phillips, WI

3:42 AM CDT on May 27, 2017 (GMT -0500)
Price County

Weather History for KPBH - February, 2014

Change the Weather History Date:

Saturday, February 15, 2014

  Actual Average Record
Temperature  
Mean Temperature 0 °F -  
Max Temperature 18 °F 26 °F 42 °F (1999)
Min Temperature -19 °F 8 °F -27 °F (2004)
Degree Days  
Heating Degree Days 66    
Moisture  
Dew Point -2 °F    
Average Humidity 77    
Maximum Humidity 90    
Minimum Humidity 47    
Precipitation  
Precipitation 0.02 in - - ()
Sea Level Pressure  
Sea Level Pressure 29.87 in    
Wind  
Wind Speed 2 mph (South)    
Max Wind Speed 10 mph    
Max Gust Speed -    
Visibility 7 miles    
Events Snow    
Averages and records for this station are not official NWS values.
T = Trace of Precipitation, MM = Missing Value Source: NWS Daily Summary

Daily Weather History Graph

Daily Weather History Graph

Search for Another Location

Airport or City:

Trip Planner

Search our weather history database for the weather conditions in past years. The results will help you decide how hot, cold, wet, or windy it might be!

Date:

Astronomy

Feb. 15, 2014 Rise Set
Actual Time 7:03 AM CST 5:28 PM CST
Civil Twilight 6:33 AM CST 5:59 PM CST
Nautical Twilight 5:58 AM CST 6:33 PM CST
Astronomical Twilight 5:23 AM CST 7:08 PM CST
Moon 6:34 PM CST (2/15) 6:58 AM CST (2/15)
Length of Visible Light 11h 25m
Length of Day
10h 24m
Waxing Gibbous, 99% of the Moon is Illuminated
Feb 15
Waxing Gibbous
Feb 22
Last Quarter
Mar 1
New
Mar 8
First Quarter
Mar 16
Full

Hourly Weather History & Observations

Time (CST) Temp. Windchill Dew Point Humidity Pressure Visibility Wind Dir Wind Speed Gust Speed Precip Events Conditions
12:15 AM -15.9 °F - -20.0 °F 82% 29.91 in 10.0 mi Calm Calm - N/A   Clear
12:35 AM -16.4 °F - -20.9 °F 80% 29.91 in 10.0 mi Calm Calm - N/A   Clear
12:55 AM -15.7 °F - -20.2 °F 80% 29.91 in 10.0 mi Calm Calm - N/A   Clear
1:15 AM -16.2 °F - -21.1 °F 79% 29.92 in 10.0 mi Calm Calm - N/A   Clear
1:35 AM -16.4 °F - -20.9 °F 80% 29.92 in 10.0 mi Calm Calm - N/A   Clear
1:55 AM -17.7 °F - -22.5 °F 78% 29.93 in 7.0 mi Calm Calm - N/A   Clear
2:15 AM -18.0 °F - -22.5 °F 80% 29.94 in 10.0 mi Calm Calm - N/A   Clear
2:35 AM -18.6 °F - -23.3 °F 79% 29.93 in 10.0 mi Calm Calm - N/A   Clear
2:55 AM -19.5 °F - -24.3 °F 78% 29.92 in 10.0 mi Calm Calm - N/A   Scattered Clouds
3:15 AM -18.6 °F - -23.6 °F 78% 29.91 in 10.0 mi Calm Calm - N/A   Clear
3:35 AM -17.1 °F - -22.0 °F 79% 29.92 in 10.0 mi Calm Calm - N/A   Clear
3:55 AM -16.4 °F - -21.1 °F 79% 29.91 in 10.0 mi Calm Calm - N/A   Mostly Cloudy
4:15 AM -16.1 °F - -21.1 °F 78% 29.91 in 10.0 mi Calm Calm - N/A   Overcast
4:40 AM -16.1 °F - -21.1 °F 78% 29.91 in 10.0 mi Calm Calm - N/A   Mostly Cloudy
4:55 AM -16.2 °F - -21.3 °F 78% 29.91 in 10.0 mi Calm Calm - N/A   Scattered Clouds
5:15 AM -15.9 °F - -20.9 °F 78% 29.91 in 10.0 mi Calm Calm - N/A   Mostly Cloudy
5:35 AM -14.4 °F - -19.3 °F 79% 29.90 in 10.0 mi Calm Calm - N/A   Overcast
5:55 AM -13.2 °F - -17.7 °F 80% 29.90 in 10.0 mi Calm Calm - N/A   Overcast
6:15 AM -10.8 °F - -15.2 °F 81% 29.90 in 10.0 mi Calm Calm - N/A   Overcast
6:35 AM -9.9 °F - -14.8 °F 79% 29.90 in 10.0 mi Calm Calm - N/A   Overcast
6:55 AM -8.1 °F - -12.5 °F 81% 29.90 in 10.0 mi Calm Calm - N/A   Overcast
7:15 AM -8.1 °F - -12.5 °F 81% 29.90 in 7.0 mi Calm Calm - N/A   Overcast
7:35 AM -6.9 °F - -11.2 °F 81% 29.90 in 10.0 mi Calm Calm - N/A   Overcast
7:55 AM -5.8 °F - -9.9 °F 82% 29.90 in 10.0 mi Calm Calm - N/A   Overcast
8:15 AM -5.1 °F - -9.4 °F 82% 29.89 in 10.0 mi Calm Calm - N/A   Overcast
8:35 AM -0.8 °F -8.7 °F -4.4 °F 85% 29.89 in 10.0 mi SE 3.5 mph - N/A   Overcast
8:55 AM 1.0 °F - -3.1 °F 83% 29.88 in 10.0 mi Calm Calm - N/A   Mostly Cloudy
9:20 AM 5.9 °F -3.0 °F 1.6 °F 82% 29.88 in 10.0 mi SSE 4.6 mph - N/A   Clear
9:35 AM 7.3 °F -2.8 °F 2.5 °F 81% 29.87 in 10.0 mi SE 5.8 mph - N/A   Clear
9:55 AM 9.0 °F 0.6 °F 2.7 °F 76% 29.87 in 10.0 mi SSE 4.6 mph - N/A   Clear
10:15 AM 11.3 °F 0.7 °F 2.1 °F 67% 29.88 in 10.0 mi South 6.9 mph - N/A   Clear
10:35 AM 13.1 °F 5.4 °F 2.8 °F 64% 29.87 in 10.0 mi South 4.6 mph - N/A   Scattered Clouds
10:55 AM 14.5 °F 3.6 °F 2.8 °F 60% 29.87 in 10.0 mi SSW 8.1 mph - N/A   Mostly Cloudy
11:15 AM 15.3 °F 4.4 °F 2.8 °F 58% 29.87 in 10.0 mi SSW 8.1 mph - N/A   Overcast
11:35 AM 16.7 °F 8.3 °F 3.2 °F 55% 29.87 in 10.0 mi SSW 5.8 mph - N/A   Mostly Cloudy
11:55 AM 16.9 °F 7.4 °F 2.7 °F 54% 29.87 in 10.0 mi SSW 6.9 mph - N/A   Scattered Clouds
12:15 PM 17.1 °F 7.6 °F 3.0 °F 54% 29.85 in 10.0 mi South 6.9 mph - N/A   Mostly Cloudy
12:35 PM 17.8 °F 7.5 °F 3.6 °F 54% 29.84 in 10.0 mi South 8.1 mph - N/A   Overcast
12:55 PM 18.3 °F 10.2 °F 2.5 °F 50% 29.82 in 10.0 mi SSW 5.8 mph - N/A   Overcast
1:15 PM 18.5 °F 8.4 °F 1.9 °F 49% 29.81 in 10.0 mi South 8.1 mph - N/A   Overcast
1:35 PM 18.9 °F 8.8 °F 1.4 °F 47% 29.81 in 10.0 mi SSE 8.1 mph - N/A   Overcast
2:00 PM 18.5 °F 7.5 °F 2.3 °F 49% 29.80 in 10.0 mi South 9.2 mph - N/A   Overcast
2:15 PM 18.5 °F 10.4 °F 2.1 °F 49% 29.80 in 10.0 mi SSE 5.8 mph - N/A   Overcast
2:35 PM 18.5 °F 8.4 °F 3.2 °F 51% 29.80 in 10.0 mi South 8.1 mph - N/A   Overcast
2:55 PM 18.5 °F 6.8 °F 5.7 °F 58% 29.80 in 7.0 mi SSW 10.4 mph - N/A   Overcast
3:15 PM 18.5 °F 8.4 °F 5.4 °F 57% 29.80 in 10.0 mi SSW 8.1 mph - N/A   Overcast
3:35 PM 17.6 °F 9.3 °F 7.7 °F 65% 29.80 in 5.0 mi SSW 5.8 mph - N/A Snow Light Snow
3:55 PM 17.2 °F 6.8 °F 7.9 °F 67% 29.81 in 5.0 mi South 8.1 mph - N/A Snow Light Snow
4:15 PM 16.2 °F 7.6 °F 10.2 °F 77% 29.82 in 2.0 mi South 5.8 mph - N/A Snow Light Snow
4:35 PM 15.4 °F 5.6 °F 11.3 °F 84% 29.82 in 1.5 mi SSE 6.9 mph - N/A Snow Light Snow
4:55 PM 14.9 °F 6.1 °F 11.3 °F 86% 29.82 in 1.2 mi SSE 5.8 mph - N/A Snow Light Snow
5:15 PM 14.4 °F 5.5 °F 10.4 °F 84% 29.83 in 2.0 mi South 5.8 mph - N/A Snow Light Snow
5:35 PM 14.2 °F 5.3 °F 10.4 °F 85% 29.84 in 1.8 mi SSE 5.8 mph - N/A Snow Light Snow
5:55 PM 14.0 °F - 10.4 °F 86% 29.86 in 1.5 mi Calm Calm - N/A Snow Light Snow
6:15 PM 13.8 °F - 10.6 °F 87% 29.86 in 1.2 mi Calm Calm - N/A Snow Light Snow
6:35 PM 13.6 °F - 10.4 °F 87% 29.86 in 2.0 mi Calm Calm - N/A Snow Light Snow
6:55 PM 13.6 °F - 10.9 °F 89% 29.87 in 1.0 mi Calm Calm - N/A Snow Light Snow
7:15 PM 13.5 °F - 10.9 °F 90% 29.87 in 1.0 mi Calm Calm - N/A Snow Snow
7:35 PM 13.5 °F - 10.9 °F 90% 29.87 in 1.8 mi Calm Calm - 0.02 in Snow Light Snow
7:55 PM 13.3 °F - 10.9 °F 90% 29.87 in 2.5 mi Calm Calm - 0.02 in Snow Light Snow
8:15 PM 13.5 °F - 10.9 °F 90% 29.88 in 2.5 mi Calm Calm - N/A Snow Light Snow
8:35 PM 13.1 °F - 10.8 °F 90% 29.88 in 4.0 mi Calm Calm - N/A Snow Light Snow
8:55 PM 13.1 °F - 10.8 °F 90% 29.89 in 4.0 mi Calm Calm - N/A Snow Light Snow
9:15 PM 12.2 °F - 9.3 °F 88% 29.89 in 2.5 mi Calm Calm - N/A Snow Light Snow
9:35 PM 11.3 °F - 9.0 °F 90% 29.89 in 5.0 mi Calm Calm - N/A Snow Light Snow
9:55 PM 10.6 °F - 7.7 °F 88% 29.89 in 3.0 mi Calm Calm - N/A Snow Light Snow
10:15 PM 10.8 °F - 8.4 °F 90% 29.89 in 7.0 mi Calm Calm - N/A Snow Light Snow
10:35 PM 12.6 °F - 10.0 °F 90% 29.89 in 5.0 mi Calm Calm - N/A Snow Light Snow
10:55 PM 12.6 °F 6.5 °F 10.0 °F 90% 29.90 in 7.0 mi NNW 3.5 mph - N/A Snow Light Snow
11:15 PM 12.7 °F - 10.2 °F 90% 29.89 in 7.0 mi Calm Calm - N/A Snow Light Snow
11:35 PM 12.7 °F - 10.0 °F 89% 29.89 in 4.0 mi Calm Calm - N/A Snow Light Snow
11:55 PM 12.7 °F - 10.0 °F 89% 29.90 in 3.0 mi Calm Calm - N/A Snow Light Snow